Weather in Lazo

Russia / Kamchatka Krai     55°32′20″N   159°45′26″E
temp.,
°C
wind,
m/s
gust,
m/s
humid.,
%
clouds,
%
prec.,
mm/h
press.,
hPa
HPBL,
m
12 august, fri
fri1200:00+13s118412 0.0 101011
03:00+12sse118799 0.0 101011
06:00+11ssw11925 0.0 101011
09:00+17nnw016814 0.0 1011377
12:00+23nnw12505 0.0 10101190
15:00+26wnw13374 0.0 10082059
18:00+26nnw123627 0.0 10071777
21:00+21sse115899 0.0 100911
13 august, sat
sat1300:00+17w127269 0.0 100923
03:00+14wnw1186100 0.0 100911
06:00+13wsw1191100 0.0 101011
09:00+17wnw1174100 0.0 1010344
12:00+18wnw2169100 0.1 1010678
15:00+21nne115849 0.0 1009997
18:00+22ene32555 0.0 10091093
21:00+16e23855 0.0 101135
14 august, sun
sun1400:00+15ese118510 0.0 101211
03:00+14se118947 0.0 101311
06:00+13sw1192100 0.0 101311
09:00+17w117692 0.0 1014221
12:00+24n1253100 0.0 10131157
15:00+25wnw0249100 0.0 10121453
18:00+23w2359100 0.1 1012477
21:00+18s1276100 0.1 101218
15 august, mon
mon1500:00+17s1177100 0.1 101333
03:00+15ese1195100 1.1 101321
06:00+14ene1399100 3.1 1011137
09:00+15nw1298100 1.5 1012153
12:00+15w129399 2.2 1012269
15:00+18nne2178100 0.1 1010673
18:00+19nne3272100 0.1 1007644
21:00+14ne3797100 0.8 1006298
16 august, tue
tue1600:00+13n3599100 4.4 1002266
03:00+13n2399100 7.2 1000204
06:00+13n3599100 7.3 998252
09:00+13n2398100 0.0 996247
12:00+14nnw3496100 0.1 993355
15:00+15nw2392100 0.2 992415
18:00+14ssw1596100 1.8 993272
21:00+13ssw51094100 0.8 994366